TimeMDT,TemperatureF,Dew PointF,Humidity,Sea Level PressureIn,VisibilityMPH,Wind Direction,Wind SpeedMPH,Gust SpeedMPH,PrecipitationIn,Events,Conditions,WindDirDegrees,DateUTC
12:56 AM,59.0,55.9,90,30.10,10.0,South,3.5,-,N/A,,Clear,170,2013-07-18 06:56:00
1:56 AM,54.0,52.0,93,30.11,10.0,SE,6.9,-,N/A,,Clear,130,2013-07-18 07:56:00
2:56 AM,54.0,52.0,93,30.11,10.0,SE,6.9,-,N/A,,Clear,140,2013-07-18 08:56:00
3:56 AM,53.1,51.1,93,30.10,10.0,SE,4.6,-,N/A,,Partly Cloudy,140,2013-07-18 09:56:00
4:56 AM,52.0,50.0,93,30.11,10.0,SE,5.8,-,N/A,,Clear,140,2013-07-18 10:56:00
5:56 AM,52.0,50.0,93,30.12,10.0,SE,6.9,-,0.01,,Scattered Clouds,140,2013-07-18 11:56:00
6:56 AM,55.0,52.0,89,30.16,10.0,North,-9999.0,-,N/A,,Partly Cloudy,0,2013-07-18 12:56:00
7:56 AM,60.1,55.0,83,30.16,10.0,SE,3.5,-,N/A,,Clear,130,2013-07-18 13:56:00
8:56 AM,64.9,55.0,70,30.16,10.0,Calm,Calm,-,N/A,,Clear,0,2013-07-18 14:56:00
9:56 AM,70.0,55.9,61,30.14,10.0,Calm,Calm,-,N/A,,Clear,0,2013-07-18 15:56:00
10:56 AM,73.9,57.9,57,30.14,10.0,Variable,3.5,-,N/A,,Clear,0,2013-07-18 16:56:00
11:56 AM,78.1,51.1,39,30.13,10.0,North,4.6,-,N/A,,Clear,360,2013-07-18 17:56:00
12:56 PM,80.1,44.1,28,30.10,10.0,South,3.5,-,N/A,,Clear,190,2013-07-18 18:56:00
1:56 PM,81.0,48.9,33,30.09,10.0,Variable,6.9,-,N/A,,Clear,0,2013-07-18 19:56:00
2:56 PM,84.9,44.1,24,30.07,10.0,NW,9.2,-,N/A,,Clear,310,2013-07-18 20:56:00
3:56 PM,86.0,43.0,22,30.05,10.0,Variable,4.6,-,N/A,,Clear,0,2013-07-18 21:56:00
4:56 PM,88.0,35.1,15,30.03,10.0,WSW,11.5,16.1,N/A,,Clear,240,2013-07-18 22:56:00
5:56 PM,88.0,33.1,14,30.01,10.0,West,4.6,-,N/A,,Clear,280,2013-07-18 23:56:00
6:56 PM,86.0,42.1,21,30.00,10.0,NNW,5.8,-,N/A,,Clear,330,2013-07-19 00:56:00
7:56 PM,82.9,42.1,24,30.00,10.0,NE,4.6,-,N/A,,Clear,50,2013-07-19 01:56:00
8:56 PM,77.0,39.9,26,30.01,10.0,Calm,Calm,-,N/A,,Clear,0,2013-07-19 02:56:00
9:56 PM,68.0,39.0,35,30.04,10.0,North,3.5,-,N/A,,Clear,360,2013-07-19 03:56:00
10:56 PM,64.9,50.0,58,30.05,10.0,South,10.4,-,N/A,,Clear,170,2013-07-19 04:56:00
11:56 PM,60.1,46.9,62,30.06,10.0,SSE,6.9,-,N/A,,Clear,150,2013-07-19 05:56:00